Tracking 19490 objects as of 23-Jan-2019
HD Live streaming from Space Station
objects crossing your sky now

FLOCK 3PP 3

Track FLOCK 3PP 3 now!
10-day predictions
FLOCK 3PP 3 is classified as:


NORAD ID: 43119
Int'l Code: 2018-004J
Perigee: 497.3 km
Apogee: 513.1 km
Inclination: 97.5 °
Period: 94.6 minutes
Semi major axis: 6876 km
RCS: Unknown
Launch date: January 12, 2018
Source: United States (US)
Launch site: SRIHARIKOTA (SRI)
aabbcc
Your satellite tracking list
Your tracking list is empty




NASA's NSSDC Master Catalog

Two Line Element Set (TLE):
1 43119U 18004J   19022.73655177 +.00000530 +00000-0 +25872-4 0  9992
2 43119 097.5097 090.5381 0011496 053.3857 306.8435 15.22580118057111
Source of the keplerian elements: AFSPC